This demonstration page uses our WeatherBlox Daily Observations layout. Learn more.

Left ArrowRight Arrow

Hourly Observations for November 26, 2019

Temp ( °F °C ) Dew Point ( °F °C ) Humidity (%) Winds ( mph kmh ) Pressure ( in mb ) Visibility ( mi km ) Precip ( " mm )
12:56 am 00:56 Clear 29 -1.7 24 -4.4 82 82 NE 8 13 29.75 1008 10 16 0.00 0.00
1:56 am 01:56 Mostly Cloudy 28 -2.2 24 -4.4 85 85 NNE 12 19 29.75 1007 10 16 0.00 0.00
2:56 am 02:56 Cloudy 32 0 27 -2.8 82 82 ENE 14 22 29.73 1007 10 16 0.00 0.00
3:56 am 03:56 Mostly Clear 31 -0.6 27 -2.8 85 85 ENE 14 22 29.71 1006 10 16 0.00 0.00
4:56 am 04:56 Clear 31 -0.6 27 -2.8 85 85 ENE 15 24 29.67 1005 10 16 0.00 0.00
5:56 am 05:56 Mostly Cloudy 31 -0.6 28 -2.2 89 89 ENE 13 20 29.70 1006 10 16 0.00 0.00
6:26 am 06:26 Cloudy 30 -1 28 -2 93 93 NE 14 22 29.77 1008 10 16 0.00 0.00
6:37 am 06:37 Cloudy 30 -1 28 -2 93 93 NE 13 20 29.77 1008 10 16 0.00 0.00
6:56 am 06:56 Cloudy 31 -0.6 28 -2.2 89 89 NE 15 24 29.71 1006 10 16 0.00 0.00
7:18 am 07:18 Cloudy 30 -1 28 -2 93 93 NE 14 22 29.79 1009 10 16 0.00 0.00
7:56 am 07:56 Windy with Snow Likely 31 -0.6 28 -2.2 89 89 ENE 21 33 29.70 1006 7 11 0.00 0.00
8:06 am 08:06 Windy with Snow Likely 30 -1 28 -2 93 93 NE 20 31 29.76 1008 2 3 0.00 0.00
8:15 am 08:15 Windy with Snow Likely 30 -1 28 -2 93 93 NE 22 35 29.75 1007 2 3 0.00 0.00
8:28 am 08:28 Windy with Snow Likely 30 -1 28 -2 93 93 NE 21 33 29.75 1007 2 2 0.00 0.00
8:56 am 08:56 Windy with Snow Likely 31 -0.6 29 -1.7 92 92 NE 22 35 29.67 1005 2 3 0.00 0.00
9:05 am 09:05 Windy with Snow Likely 30 -1 28 -2 93 93 NE 22 35 29.73 1007 1 2 0.00 0.00
9:13 am 09:13 Windy with Snow Likely 30 -1 28 -2 93 93 NE 24 39 29.73 1007 1 2 0.00 0.00
9:26 am 09:26 Windy with Snow Likely 30 -1 28 -2 93 93 NE 25 41 29.72 1006 2 3 0.00 0.00
9:56 am 09:56 Windy with Snow Likely 31 -0.6 29 -1.7 92 92 NE 25 41 29.65 1004 1 2 0.00 0.00
10:18 am 10:18 Windy with Snow Likely 30 -1 28 -2 93 93 NE 21 33 29.70 1006 1 2 0.00 0.00
10:56 am 10:56 Windy with Snow Likely 31 -0.6 29 -1.7 92 92 NE 28 44 29.62 1003 2 2 0.01 0.25
11:05 am 11:05 Windy with Snow Likely 30 -1 28 -2 93 93 NE 28 44 29.67 1005 1 1 0.00 0.00
11:15 am 11:15 Cloudy with Snow 30 -1 28 -2 93 93 NE 28 44 29.66 1004 1 1 0.00 0.00
11:43 am 11:43 Windy with Snow Likely 30 -1 28 -2 93 93 NE 24 39 29.66 1004 1 1 0.00 0.00
11:56 am 11:56 Cloudy with Snow 30 -1.1 29 -1.7 96 96 NE 25 41 29.59 1002 1 1 0.01 0.25
12:09 pm 12:09 Windy with Snow Likely 30 -1 28 -2 93 93 NNE 20 31 29.64 1004 1 2 0.00 0.00
12:20 pm 12:20 Windy with Snow Likely 30 -1 28 -2 93 93 NE 24 39 29.62 1003 1 2 0.00 0.00
12:56 pm 12:56 Windy with Snow Likely 30 -1.1 29 -1.7 96 96 NNE 26 43 29.54 1000 2 3 0.02 0.51
1:03 pm 13:03 Windy with Snow Likely 30 -1 28 -2 93 93 NNE 26 43 29.59 1002 2 3 0.01 0.25
1:15 pm 13:15 Windy with Snow Likely 30 -1 28 -2 93 93 NNE 22 35 29.58 1002 1 2 0.01 0.25
1:23 pm 13:23 Windy with Snow Likely 30 -1 28 -2 93 93 NNE 25 41 29.58 1002 1 1 0.01 0.25
1:52 pm 13:52 Cloudy with Snow 30 -1 28 -2 93 93 NNE 30 48 29.56 1001 1 1 0.02 0.51
1:56 pm 13:56 Cloudy with Snow 30 -1.1 29 -1.7 96 96 NE 29 46 29.51 999 1 1 0.02 0.51
2:03 pm 14:03 Cloudy with Snow 30 -1 28 -2 93 93 NE 25 41 29.56 1001 0 0 0.00 0.00
2:19 pm 14:19 Cloudy with Snow 30 -1 28 -2 93 93 NNE 24 39 29.55 1001 1 1 0.00 0.00
2:56 pm 14:56 Cloudy with Snow 30 -1.1 29 -1.7 96 96 NNE 26 43 29.49 999 1 1 0.02 0.51
3:14 pm 15:14 Cloudy with Snow 30 -1 28 -2 93 93 NNE 21 33 29.57 1001 0 0 0.00 0.00
3:21 pm 15:21 Cloudy with Snow 30 -1 28 -2 93 93 NNE 21 33 29.58 1002 1 1 0.00 0.00
3:35 pm 15:35 Windy with Snow Likely 30 -1 28 -2 93 93 NNE 20 31 29.58 1002 1 1 0.00 0.00
3:52 pm 15:52 Cloudy with Snow 30 -1 28 -2 93 93 N 22 35 29.59 1002 0 0 0.00 0.00
3:53 pm 15:53 Cloudy with Snow 30 -1.1 29 -1.7 96 96 NNE 23 37 29.54 1000 0 0 0.00 0.00
4:13 pm 16:13 Cloudy with Heavy Snow 30 -1 28 -2 93 93 N 25 41 29.61 1003 0 0 0.01 0.25
4:49 pm 16:49 Cloudy with Snow 28 -2 28 -2 100 100 N 22 35 29.66 1004 1 1 0.01 0.25
4:56 pm 16:56 Cloudy with Snow 29 -1.7 28 -2.2 96 96 N 23 37 29.61 1003 1 1 0.01 0.25
5:25 pm 17:25 Windy with Snow Likely 28 -2 27 -3 93 93 N 26 43 29.68 1005 1 1 0.00 0.00
5:41 pm 17:41 Windy with Snow Likely 28 -2 27 -3 93 93 N 22 35 29.69 1005 1 2 0.00 0.00
5:52 pm 17:52 Windy with Snow Likely 28 -2 27 -3 93 93 N 30 48 29.69 1005 1 1 0.00 0.00
5:56 pm 17:56 Windy with Snow Likely 28 -2.2 27 -2.8 96 96 N 28 44 29.63 1004 1 1 0.00 0.00
6:15 pm 18:15 Cloudy with Snow 28 -2 27 -3 93 93 N 26 43 29.70 1006 1 1 0.01 0.25
6:43 pm 18:43 Windy with Snow Likely 28 -2 27 -3 93 93 N 31 50 29.71 1006 1 1 0.00 0.00
6:56 pm 18:56 Windy with Snow Likely 27 -2.8 26 -3.3 96 96 N 31 50 29.65 1004 1 1 0.01 0.25
7:09 pm 19:09 Windy with Snow Likely 27 -3 27 -3 100 100 N 31 50 29.73 1007 1 2 0.00 0.00
7:44 pm 19:44 Windy with Snow Likely 27 -3 27 -3 100 100 N 25 41 29.75 1007 1 2 0.00 0.00
7:56 pm 19:56 Windy with Snow Likely 27 -2.8 26 -3.3 96 96 NNW 25 41 29.69 1005 2 3 0.00 0.00
8:41 pm 20:41 Windy with Snow Likely 27 -3 25 -4 93 93 NNW 25 41 29.79 1009 1 2 0.00 0.00
8:48 pm 20:48 Windy with Snow Likely 27 -3 25 -4 93 93 NNW 24 39 29.79 1009 2 2 0.00 0.00
8:56 pm 20:56 Windy with Snow Likely 27 -2.8 25 -3.9 92 92 NNW 25 41 29.73 1007 2 2 0.00 0.00
9:12 pm 21:12 Windy with Snow Likely 27 -3 25 -4 93 93 NNW 26 43 29.81 1009 2 3 0.00 0.00
9:19 pm 21:19 Windy with Snow Likely 27 -3 25 -4 93 93 NNW 24 39 29.82 1010 2 3 0.00 0.00
9:54 pm 21:54 Windy with Snow Likely 27 -3 25 -4 93 93 NNW 20 31 29.85 1011 2 3 0.00 0.00
9:56 pm 21:56 Windy with Snow Likely 26 -3.3 24 -4.4 92 92 NNW 22 35 29.78 1009 2 3 0.00 0.00
10:07 pm 22:07 Windy with Snow Likely 27 -3 25 -4 93 93 NNW 23 37 29.85 1011 2 3 0.00 0.00
10:24 pm 22:24 Mostly Cloudy with Light Snow 27 -3 25 -4 93 93 NNW 23 37 29.86 1011 3 5 0.00 0.00
10:38 pm 22:38 Partly Cloudy with Scattered Snow Showers 27 -3 23 -5 86 86 NNW 23 37 29.87 1011 5 8 0.00 0.00
10:56 pm 22:56 Windy with Snow Likely 25 -3.9 23 -5 92 92 NNW 20 31 29.83 1010 7 11 0.00 0.00
11:56 pm 23:56 Clear with Light Snow 24 -4.4 22 -5.6 91 91 NW 18 30 29.89 1012 10 16 0.00 0.00

Powered by AerisWeather